W2IRT Weather Reports


time (UTC)temp
C
wind
direction
speed
KPH
gust
KPH
rain 1hr
cm
rain 24hr
cm
rain mn
cm
humidity
%
barometer
mb
20260505210016 28 225 12.9 33.8 0.00 0.00 0.00 26 1006.5
20260505205516 28 202 12.9 30.6 0.00 0.00 0.00 26 1006.5
20260505205015 28 202 14.5 37.0 0.00 0.00 0.00 26 1006.6
20260505204516 28 225 11.3 30.6 0.00 0.00 0.00 24 1006.4
20260505204016 28 202 11.3 24.1 0.00 0.00 0.00 24 1006.5
20260505203516 29 225 11.3 27.4 0.00 0.00 0.00 24 1006.7
20260505203016 29 225 6.4 20.9 0.00 0.00 0.00 26 1006.5
20260505202516 28 202 6.4 22.5 0.00 0.00 0.00 26 1006.6
20260505202016 28 202 6.4 24.1 0.00 0.00 0.00 26 1006.7
20260505201521 28 202 8.0 17.7 0.00 0.00 0.00 27 1006.6
20260505201015 28 202 6.4 19.3 0.00 0.00 0.00 27 1006.6
20260505200516 28 202 8.0 24.1 0.00 0.00 0.00 29 1006.6
20260505200015 28 202 9.7 24.1 0.00 0.00 0.00 26 1006.6
20260505195515 28 202 8.0 27.4 0.00 0.00 0.00 26 1006.7
20260505195015 28 225 12.9 33.8 0.00 0.00 0.00 27 1006.9
20260505194515 28 202 9.7 33.8 0.00 0.00 0.00 27 1006.9
20260505194015 28 202 9.7 25.7 0.00 0.00 0.00 26 1006.8
20260505193515 28 202 6.4 22.5 0.00 0.00 0.00 28 1007.0
20260505193015 28 202 4.8 16.1 0.00 0.00 0.00 29 1006.9
20260505192516 28 202 4.8 25.7 0.00 0.00 0.00 29 1007.2
20260505192031 28 202 9.7 24.1 0.00 0.00 0.00 27 1007.2
20260505191515 28 202 4.8 17.7 0.00 0.00 0.00 28 1007.2
20260505191016 28 202 6.4 16.1 0.00 0.00 0.00 29 1007.2
20260505190515 28 225 8.0 19.3 0.00 0.00 0.00 29 1007.3
20260505190015 28 225 4.8 16.1 0.00 0.00 0.00 29 1007.3
20260505185515 28 225 9.7 22.5 0.00 0.00 0.00 28 1007.4
20260505185015 28 202 4.8 16.1 0.00 0.00 0.00 28 1007.4
20260505184516 28 202 6.4 22.5 0.00 0.00 0.00 29 1007.6
20260505184015 28 225 8.0 19.3 0.00 0.00 0.00 29 1007.8
20260505183516 28 225 6.4 22.5 0.00 0.00 0.00 28 1007.9
20260505183015 28 202 8.0 20.9 0.00 0.00 0.00 30 1007.8
20260505182515 28 202 8.0 16.1 0.00 0.00 0.00 31 1007.8
20260505182015 28 225 6.4 17.7 0.00 0.00 0.00 31 1007.8
20260505181515 28 202 6.4 24.1 0.00 0.00 0.00 31 1007.8
20260505181015 28 202 6.4 22.5 0.00 0.00 0.00 30 1008.0
20260505180515 28 202 8.0 16.1 0.00 0.00 0.00 33 1007.9
20260505180015 28 225 6.4 16.1 0.00 0.00 0.00 32 1007.9
20260505175515 28 225 8.0 14.5 0.00 0.00 0.00 33 1008.0
20260505175015 28 225 9.7 27.4 0.00 0.00 0.00 32 1008.1
20260505174516 28 225 11.3 27.4 0.00 0.00 0.00 31 1008.1
20260505174015 28 225 4.8 16.1 0.00 0.00 0.00 32 1008.2
20260505173515 28 225 6.4 16.1 0.00 0.00 0.00 34 1008.2
20260505173015 28 202 9.7 20.9 0.00 0.00 0.00 32 1008.3
20260505172515 28 225 8.0 20.9 0.00 0.00 0.00 34 1008.4
20260505172015 28 202 8.0 16.1 0.00 0.00 0.00 33 1008.5
20260505171515 28 202 4.8 12.9 0.00 0.00 0.00 35 1008.6
20260505171015 28 225 6.4 19.3 0.00 0.00 0.00 34 1008.6
20260505170515 28 225 3.2 14.5 0.00 0.00 0.00 36 1008.6
20260505170015 28 225 6.4 14.5 0.00 0.00 0.00 35 1008.6
20260505165515 28 202 4.8 12.9 0.00 0.00 0.00 35 1008.7
20260505165015 27 247 4.8 12.9 0.00 0.00 0.00 37 1008.8
20260505164515 27 0.0 4.8 0.00 0.00 0.00 37 1008.9
20260505164015 27 225 3.2 14.5 0.00 0.00 0.00 39 1008.9
20260505163515 27 225 1.6 8.0 0.00 0.00 0.00 38 1009.0
20260505163015 26 225 1.6 8.0 0.00 0.00 0.00 38 1009.0
20260505162515 26 202 4.8 12.9 0.00 0.00 0.00 40 1009.2
20260505162015 26 225 3.2 19.3 0.00 0.00 0.00 39 1009.2
20260505161531 26 225 1.6 11.3 0.00 0.00 0.00 41 1009.2
20260505161015 26 225 3.2 11.3 0.00 0.00 0.00 41 1009.3
20260505160515 25 225 4.8 14.5 0.00 0.00 0.00 42 1009.4
20260505153015 24 0.0 6.4 0.00 0.00 0.00 45 1009.7
20260505152517 24 225 3.2 11.3 0.00 0.00 0.00 45 1009.9
20260505152017 24 225 3.2 11.3 0.00 0.00 0.00 45 1010.1
20260505151517 24 225 3.2 14.5 0.00 0.00 0.00 44 1010.0
20260505151017 23 225 3.2 11.3 0.00 0.00 0.00 45 1010.0
20260505150517 23 225 1.6 8.0 0.00 0.00 0.00 45 1009.9
20260505140517 21 225 4.8 9.7 0.00 0.00 0.00 53 1010.5
20260505125016 18 225 4.8 9.7 0.00 0.00 0.00 63 1010.1
20260505124516 18 225 1.6 9.7 0.00 0.00 0.00 64 1010.0
20260505124016 18 225 1.6 4.8 0.00 0.00 0.00 66 1009.9
20260505123517 17 225 1.6 6.4 0.00 0.00 0.00 66 1010.0
20260505123017 17 0.0 4.8 0.00 0.00 0.00 66 1010.1
20260505122516 17 0.0 4.8 0.00 0.00 0.00 68 1010.1
20260505122016 17 0.0 0.0 0.00 0.00 0.00 69 1010.2
20260505121516 17 0.0 0.0 0.00 0.00 0.00 70 1010.3
20260505121016 16 0.0 4.8 0.00 0.00 0.00 70 1010.4
20260505120516 16 225 1.6 4.8 0.00 0.00 0.00 70 1010.4
20260505120016 16 225 1.6 8.0 0.00 0.00 0.00 70 1010.4
20260505115516 16 0.0 1.6 0.00 0.00 0.00 72 1010.4
20260505115016 15 0.0 0.0 0.00 0.00 0.00 75 1010.4
20260505114516 15 0.0 0.0 0.00 0.00 0.00 75 1010.3
20260505114016 15 0.0 1.6 0.00 0.00 0.00 76 1010.3
20260505113517 15 0.0 0.0 0.00 0.00 0.00 76 1010.2
20260505113016 15 0.0 0.0 0.00 0.00 0.00 77 1010.3
20260505112516 15 0.0 0.0 0.00 0.00 0.00 77 1010.2
20260505112016 15 0.0 0.0 0.00 0.00 0.00 77 1010.3
20260505111516 15 0.0 0.0 0.00 0.00 0.00 77 1010.3
20260505111016 14 0.0 0.0 0.00 0.00 0.00 77 1010.0
20260505110516 15 0.0 0.0 0.00 0.00 0.00 77 1010.1
20260505102016 14 0.0 0.0 0.00 0.00 0.00 69 1010.3
20260505101516 14 0.0 0.0 0.00 0.00 0.00 69 1010.3
20260505101016 14 0.0 0.0 0.00 0.00 0.00 68 1010.1
20260505100532 15 0.0 0.0 0.00 0.00 0.00 68 1010.0
20260505100016 15 0.0 1.6 0.00 0.00 0.00 68 1009.9
20260505095516 15 202 1.6 6.4 0.00 0.00 0.00 68 1009.9
20260505095016 15 0.0 8.0 0.00 0.00 0.00 68 1009.9
20260505094516 15 0.0 4.8 0.00 0.00 0.00 68 1009.7
20260505094016 15 0.0 0.0 0.00 0.00 0.00 68 1009.6
20260505093516 15 0.0 4.8 0.00 0.00 0.00 68 1009.5
20260505093016 15 0.0 3.2 0.00 0.00 0.00 68 1009.6
20260505092516 15 0.0 0.0 0.00 0.00 0.00 68 1009.4
20260505092016 15 0.0 0.0 0.00 0.00 0.00 68 1009.4
20260505091516 15 0.0 0.0 0.00 0.00 0.00 67 1009.4
20260505091016 15 0.0 0.0 0.00 0.00 0.00 67 1009.4
20260505090516 15 0.0 0.0 0.00 0.00 0.00 67 1009.4
20260505090016 15 0.0 0.0 0.00 0.00 0.00 67 1009.4
20260505085516 15 0.0 0.0 0.00 0.00 0.00 67 1009.3
20260505085016 15 0.0 0.0 0.00 0.00 0.00 67 1009.3
20260505084516 15 0.0 0.0 0.00 0.00 0.00 67 1009.2
20260505084016 15 0.0 0.0 0.00 0.00 0.00 67 1009.3
20260505083516 15 0.0 0.0 0.00 0.00 0.00 67 1009.4
20260505083016 15 0.0 0.0 0.00 0.00 0.00 67 1009.4
20260505082516 15 0.0 0.0 0.00 0.00 0.00 67 1009.4
20260505082016 15 0.0 0.0 0.00 0.00 0.00 67 1009.3
20260505081516 15 0.0 0.0 0.00 0.00 0.00 67 1009.3
20260505081016 15 0.0 0.0 0.00 0.00 0.00 67 1009.4
20260505080516 15 0.0 0.0 0.00 0.00 0.00 67 1009.4
20260505080016 15 0.0 0.0 0.00 0.00 0.00 67 1009.4
20260505075516 15 0.0 0.0 0.00 0.00 0.00 67 1009.3
20260505075016 15 0.0 0.0 0.00 0.00 0.00 66 1009.4
20260505074516 15 0.0 0.0 0.00 0.00 0.00 66 1009.3
20260505074016 15 0.0 0.0 0.00 0.00 0.00 66 1009.3
20260505073516 15 0.0 0.0 0.00 0.00 0.00 66 1009.3
20260505073016 15 0.0 0.0 0.00 0.00 0.00 66 1009.4
20260505072516 15 0.0 0.0 0.00 0.00 0.00 66 1009.3
20260505072016 15 0.0 0.0 0.00 0.00 0.00 65 1009.3
20260505071516 15 0.0 0.0 0.00 0.00 0.00 65 1009.4
20260505071016 15 0.0 0.0 0.00 0.00 0.00 65 1009.4
20260505070516 15 0.0 0.0 0.00 0.00 0.00 65 1009.4
20260505070031 15 0.0 0.0 0.00 0.00 0.00 64 1009.3
20260505065516 15 0.0 0.0 0.00 0.00 0.00 64 1009.3
20260505065016 15 0.0 0.0 0.00 0.00 0.00 64 1009.4
20260505064516 15 0.0 3.2 0.00 0.00 0.00 63 1009.3
20260505064016 15 0.0 4.8 0.00 0.00 0.00 63 1009.4
20260505063516 15 0.0 0.0 0.00 0.00 0.00 63 1009.4
20260505063016 15 0.0 3.2 0.00 0.00 0.00 62 1009.4
20260505062516 15 0.0 0.0 0.00 0.00 0.00 62 1009.5
20260505062016 15 0.0 0.0 0.00 0.00 0.00 62 1009.5
20260505061515 16 0.0 0.0 0.00 0.00 0.00 61 1009.5
20260505061016 16 0.0 0.0 0.00 0.00 0.00 61 1009.5
20260505060516 16 0.0 0.0 0.00 0.00 0.00 60 1009.5
20260505060015 16 0.0 0.0 0.00 0.00 0.00 60 1009.5
20260505055515 16 0.0 0.0 0.00 0.00 0.00 60 1009.5
20260505055015 16 0.0 0.0 0.00 0.00 0.00 60 1009.6
20260505054516 16 0.0 0.0 0.00 0.00 0.00 59 1009.6
20260505054015 16 0.0 0.0 0.00 0.00 0.00 59 1009.6
20260505053516 16 0.0 3.2 0.00 0.00 0.00 58 1009.7
20260505053015 16 0.0 4.8 0.00 0.00 0.00 58 1009.8
20260505052515 16 0.0 0.0 0.00 0.00 0.00 58 1009.7
20260505052016 16 0.0 0.0 0.00 0.00 0.00 57 1009.7
20260505051515 16 0.0 0.0 0.00 0.00 0.00 57 1009.8
20260505051016 16 0.0 0.0 0.00 0.00 0.00 56 1009.8
20260505050515 16 0.0 3.2 0.00 0.00 0.00 56 1009.8
20260505041515 17 225 1.6 6.4 0.00 0.00 0.00 51 1009.9
20260505041015 17 202 1.6 8.0 0.00 0.00 0.00 51 1009.9
20260505040515 17 0.0 4.8 0.00 0.00 0.00 50 1009.8
20260505040015 17 202 1.6 4.8 0.00 0.00 0.00 49 1009.8
20260505035531 17 0.0 6.4 0.00 0.00 0.00 49 1009.8
20260505035016 17 0.0 6.4 0.00 0.00 0.00 48 1009.8
20260505034516 17 0.0 4.8 0.00 0.00 0.00 48 1009.8
20260505034016 17 0.0 4.8 0.00 0.00 0.00 47 1009.9
20260505033516 17 0.0 3.2 0.00 0.00 0.00 47 1009.9
20260505033016 17 0.0 8.0 0.00 0.00 0.00 47 1009.9
20260505032516 17 0.0 4.8 0.00 0.00 0.00 47 1009.9
20260505032016 18 0.0 4.8 0.00 0.00 0.00 47 1009.9
20260505031516 18 0.0 1.6 0.00 0.00 0.00 47 1009.9
20260505031016 18 0.0 4.8 0.00 0.00 0.00 46 1009.9
20260505030516 18 0.0 6.4 0.00 0.00 0.00 46 1010.0
20260505030016 18 0.0 6.4 0.00 0.00 0.00 45 1010.0
20260505025516 18 0.0 0.0 0.00 0.00 0.00 45 1010.0
20260505025015 18 0.0 3.2 0.00 0.00 0.00 45 1010.0
20260505024516 18 0.0 6.4 0.00 0.00 0.00 44 1010.1
20260505024016 18 0.0 4.8 0.00 0.00 0.00 43 1010.0
20260505023516 18 0.0 3.2 0.00 0.00 0.00 42 1010.0
20260505023016 18 0.0 6.4 0.00 0.00 0.00 42 1010.0
20260505022516 18 0.0 3.2 0.00 0.00 0.00 41 1010.1
20260505022015 18 0.0 4.8 0.00 0.00 0.00 40 1010.0
20260505021516 19 0.0 3.2 0.00 0.00 0.00 39 1010.1
20260505021016 19 0.0 3.2 0.00 0.00 0.00 39 1010.1
20260505020516 19 0.0 0.0 0.00 0.00 0.00 39 1010.1
20260505020016 19 0.0 0.0 0.00 0.00 0.00 39 1010.1
20260505015516 19 0.0 0.0 0.00 0.00 0.00 39 1009.9
20260505015016 19 0.0 0.0 0.00 0.00 0.00 38 1009.9
20260505014516 19 0.0 0.0 0.00 0.00 0.00 39 1009.9
20260505014015 19 0.0 0.0 0.00 0.00 0.00 39 1009.8
20260505013516 19 0.0 0.0 0.00 0.00 0.00 39 1009.8
20260505013016 19 0.0 0.0 0.00 0.00 0.00 38 1009.8
20260505012516 19 0.0 0.0 0.00 0.00 0.00 39 1009.8
20260505012016 19 0.0 0.0 0.00 0.00 0.00 38 1009.8
20260505011516 19 0.0 0.0 0.00 0.00 0.00 38 1009.7
20260505011016 19 0.0 0.0 0.00 0.00 0.00 38 1009.6
20260505010516 19 0.0 0.0 0.00 0.00 0.00 38 1009.5
20260505010015 19 0.0 0.0 0.00 0.00 0.00 38 1009.5
20260505005515 19 0.0 0.0 0.00 0.00 0.00 38 1009.4
20260505005031 20 0.0 0.0 0.00 0.00 0.00 38 1009.4
20260505004516 20 0.0 0.0 0.00 0.00 0.00 37 1009.3
20260505004016 20 0.0 0.0 0.00 0.00 0.00 37 1009.2
20260505003516 20 0.0 0.0 0.00 0.00 0.00 37 1009.2
20260505003015 20 0.0 0.0 0.00 0.00 0.00 36 1009.2
20260505002516 20 0.0 0.0 0.00 0.00 0.00 35 1009.1
20260505002015 20 0.0 0.0 0.00 0.00 0.00 35 1009.0
20260505001516 21 0.0 3.2 0.00 0.00 0.00 35 1009.0
20260505001015 21 0.0 6.4 0.00 0.00 0.00 34 1008.9
20260505000515 21 0.0 8.0 0.00 0.00 0.00 33 1008.7
20260505000015 21 225 1.6 6.4 0.00 0.00 0.00 33 1008.7
20260504235515 21 225 1.6 8.0 0.00 0.00 0.00 33 1008.6
20260504235016 21 202 1.6 6.4 0.00 0.00 0.00 33 1008.5
20260504234515 21 225 1.6 4.8 0.00 0.00 0.00 33 1008.5
20260504234016 21 225 4.8 12.9 0.00 0.00 0.00 32 1008.4
20260504233515 22 225 1.6 8.0 0.00 0.00 0.00 33 1008.3
20260504233015 22 225 3.2 11.3 0.00 0.00 0.00 32 1008.2
20260504232515 22 225 1.6 8.0 0.00 0.00 0.00 32 1008.2
20260504232015 22 225 3.2 8.0 0.00 0.00 0.00 32 1008.1
20260504231515 22 225 1.6 6.4 0.00 0.00 0.00 31 1008.1
20260504231015 22 225 1.6 8.0 0.00 0.00 0.00 31 1008.0
20260504230515 22 0.0 3.2 0.00 0.00 0.00 31 1008.0
20260504230015 22 225 4.8 12.9 0.00 0.00 0.00 31 1007.9
20260504225516 22 225 4.8 20.9 0.00 0.00 0.00 30 1008.0
20260504225015 22 202 3.2 12.9 0.00 0.00 0.00 31 1007.9
20260504224515 22 225 1.6 4.8 0.00 0.00 0.00 31 1008.0
20260504224015 22 225 6.4 17.7 0.00 0.00 0.00 30 1008.0
20260504223515 22 225 6.4 12.9 0.00 0.00 0.00 29 1008.0
20260504223015 22 225 3.2 12.9 0.00 0.00 0.00 30 1008.1
20260504222515 23 225 8.0 14.5 0.00 0.00 0.00 29 1008.1
20260504222015 23 225 3.2 12.9 0.00 0.00 0.00 29 1008.0
20260504221515 23 225 4.8 14.5 0.00 0.00 0.00 30 1008.1
20260504221015 23 225 4.8 11.3 0.00 0.00 0.00 29 1008.2
20260504220515 23 202 3.2 11.3 0.00 0.00 0.00 30 1008.1
20260504220015 23 225 3.2 11.3 0.00 0.00 0.00 30 1008.2
20260504215515 23 225 3.2 11.3 0.00 0.00 0.00 29 1008.2
20260504215015 23 225 4.8 12.9 0.00 0.00 0.00 29 1008.4
20260504214531 23 225 4.8 14.5 0.00 0.00 0.00 29 1008.3
20260504214015 23 225 8.0 25.7 0.00 0.00 0.00 29 1008.5
20260504213515 23 202 3.2 11.3 0.00 0.00 0.00 30 1008.4
20260504213015 23 225 3.2 9.7 0.00 0.00 0.00 29 1008.5
20260504212515 23 225 4.8 11.3 0.00 0.00 0.00 28 1008.5
20260504212015 23 225 6.4 12.9 0.00 0.00 0.00 28 1008.5
20260504211515 23 225 8.0 20.9 0.00 0.00 0.00 28 1008.6
20260504211015 23 225 4.8 14.5 0.00 0.00 0.00 28 1008.6
20260504210515 23 225 4.8 16.1 0.00 0.00 0.00 28 1008.6